Tracking 18942 objects as of 17-Jan-2018
HD Live streaming from Space Station
objects crossing your sky now

EUTELSAT 2-F4

Track EUTELSAT 2-F4 now!
EUTELSAT 2-F4 is classified as:


NORAD ID: 22028
Int'l Code: 1992-041B
Perigee: 36,089.7 km
Apogee: 36,172.6 km
Inclination: 13.1 °
Period: 1,453.4 minutes
Semi major axis: 42502 km
RCS: 3.1622 m2 (large)
Launch date: July 9, 1992
Source: European Telecommunications Satellite Organization (EUTE)
Launch site: FRENCH GUIANA (FRGUI)
aabbcc
Your satellite tracking list
Your tracking list is empty




NASA's NSSDC Master Catalog

Two Line Element Set (TLE):
1 22028U 92041B   18015.24898469 -.00000169 +00000-0 +00000-0 0  9992
2 22028 013.0534 029.6205 0009752 228.4931 309.9235 00.99080252016315
Source of the keplerian elements: AFSPC